When you browse on this site, cookies collect data to enhance your experience and personalize the content and advertising you see.
Visit our Privacy Policy to learn more. By continuing to use the site, you agree to this use of cookies and data.
  • în România
  • Lista ţărilor
  • Pe 7 zile
  • Temperatura apei
  • Meteo pe hartă
  • Widget-uri
  • user-avatar
    Intrare

    Meteo pe oră la Nachiczewan

    Astăzi, 15 Noiembrie, Vineri

    Timp Temperatura Precipitaţii Vânt Presiune Umiditate
    00:00 +9°C° 0 mm 1 m/s 692 mmHg 47%
    01:00 +8°C° 0 mm 1 m/s 692 mmHg 50%
    02:00 +8°C° 0 mm 1 m/s 691 mmHg 53%
    03:00 +7°C° 0 mm 1 m/s 691 mmHg 58%
    04:00 +7°C° 0 mm 1 m/s 691 mmHg 60%
    05:00 +6°C° 0 mm 1 m/s 691 mmHg 62%
    06:00 +6°C° 0 mm 1 m/s 691 mmHg 64%
    07:00 +8°C° 0 mm 1 m/s 692 mmHg 58%
    08:00 +9°C° 0 mm 1 m/s 692 mmHg 52%
    09:00 +11°C° 0 mm 1 m/s 693 mmHg 47%
    10:00 +12°C° 0 mm 1 m/s 693 mmHg 43%
    11:00 +13°C° 0 mm 1 m/s 693 mmHg 40%
    12:00 +14°C° 0 mm 1 m/s 693 mmHg 36%
    13:00 +14°C° 0 mm 1 m/s 692 mmHg 35%
    14:00 +15°C° 0 mm 1 m/s 692 mmHg 33%
    15:00 +15°C° 0 mm 1 m/s 692 mmHg 31%
    16:00 +14°C° 0 mm 1 m/s 692 mmHg 36%
    17:00 +12°C° 0 mm 1 m/s 692 mmHg 41%
    18:00 +11°C° 0 mm 1 m/s 692 mmHg 45%
    19:00 +10°C° 0 mm 1 m/s 692 mmHg 50%
    20:00 +8°C° 0 mm 2 m/s 692 mmHg 54%
    21:00 +8°C° 0 mm 2 m/s 692 mmHg 59%
    22:00 +7°C° 0 mm 2 m/s 692 mmHg 61%
    23:00 +7°C° 0 mm 2 m/s 692 mmHg 62%

    Mâine, 16 Noiembrie, Sâmbătă

    Timp Temperatura Precipitaţii Vânt Presiune Umiditate
    00:00 +6°C° 0 mm 2 m/s 692 mmHg 64%
    01:00 +6°C° 0 mm 2 m/s 692 mmHg 66%
    02:00 +6°C° 0 mm 1 m/s 692 mmHg 68%
    03:00 +6°C° 0 mm 1 m/s 692 mmHg 70%
    04:00 +5°C° 0 mm 1 m/s 692 mmHg 71%
    05:00 +5°C° 0 mm 1 m/s 692 mmHg 73%
    06:00 +5°C° 0 mm 1 m/s 692 mmHg 74%
    07:00 +6°C° 0 mm 1 m/s 693 mmHg 68%
    08:00 +6°C° 0 mm 2 m/s 693 mmHg 63%
    09:00 +7°C° 0 mm 2 m/s 693 mmHg 57%
    10:00 +8°C° 0 mm 2 m/s 693 mmHg 52%
    11:00 +9°C° 0 mm 2 m/s 693 mmHg 47%
    12:00 +10°C° 0 mm 2 m/s 693 mmHg 43%
    13:00 +10°C° 0 mm 2 m/s 693 mmHg 41%
    14:00 +10°C° 0 mm 2 m/s 693 mmHg 39%
    15:00 +12°C° 0 mm 2 m/s 693 mmHg 37%
    16:00 +9°C° 0 mm 3 m/s 694 mmHg 41%
    17:00 +8°C° 0 mm 3 m/s 694 mmHg 44%
    18:00 +7°C° 0 mm 3 m/s 694 mmHg 48%
    19:00 +5°C° 0 mm 3 m/s 694 mmHg 50%
    20:00 +4°C° 0 mm 3 m/s 695 mmHg 53%
    21:00 +5°C° 0 mm 2 m/s 695 mmHg 55%
    22:00 +4°C° 0 mm 2 m/s 695 mmHg 56%
    23:00 +4°C° 0 mm 2 m/s 695 mmHg 58%

    Poimâine, 17 Noiembrie, Duminică

    Timp Temperatura Precipitaţii Vânt Presiune Umiditate
    00:00 +3°C° 0 mm 2 m/s 695 mmHg 59%
    01:00 +3°C° 0 mm 2 m/s 695 mmHg 60%
    02:00 +2°C° 0 mm 2 m/s 695 mmHg 61%
    03:00 +3°C° 0 mm 1 m/s 695 mmHg 61%
    04:00 +3°C° 0 mm 1 m/s 695 mmHg 62%
    05:00 +2°C° 0 mm 1 m/s 694 mmHg 62%
    06:00 +2°C° 0 mm 1 m/s 694 mmHg 63%
    07:00 +3°C° 0 mm 1 m/s 695 mmHg 57%
    08:00 +4°C° 0 mm 1 m/s 695 mmHg 52%
    09:00 +5°C° 0 mm 1 m/s 695 mmHg 47%
    10:00 +6°C° 0 mm 1 m/s 695 mmHg 43%
    11:00 +6°C° 0 mm 0 m/s 694 mmHg 40%
    12:00 +8°C° 0 mm 0 m/s 694 mmHg 36%
    13:00 +8°C° 0 mm 0 m/s 694 mmHg 34%
    14:00 +10°C° 0 mm 1 m/s 693 mmHg 31%
    15:00 +10°C° 0 mm 1 m/s 693 mmHg 29%
    16:00 +9°C° 0 mm 1 m/s 693 mmHg 31%
    17:00 +7°C° 0 mm 0 m/s 693 mmHg 34%
    18:00 +6°C° 0 mm 0 m/s 694 mmHg 36%
    19:00 +6°C° 0 mm 0 m/s 694 mmHg 37%
    20:00 +5°C° 0 mm 0 m/s 694 mmHg 38%
    21:00 +5°C° 0 mm 0 m/s 694 mmHg 39%
    22:00 +4°C° 0 mm 0 m/s 694 mmHg 41%
    23:00 +4°C° 0 mm 0 m/s 694 mmHg 42%

    18 Noiembrie, Luni

    Timp Temperatura Precipitaţii Vânt Presiune Umiditate
    00:00 +3°C° 0 mm 0 m/s 694 mmHg 43%
    01:00 +3°C° 0 mm 0 m/s 693 mmHg 44%
    02:00 +2°C° 0 mm 0 m/s 693 mmHg 45%
    03:00 +2°C° 0 mm 0 m/s 693 mmHg 46%
    04:00 +2°C° 0 mm 0 m/s 693 mmHg 47%
    05:00 +2°C° 0 mm 0 m/s 693 mmHg 48%
    06:00 +1°C° 0 mm 0 m/s 692 mmHg 49%
    07:00 +3°C° 0 mm 0 m/s 693 mmHg 44%
    08:00 +4°C° 0 mm 0 m/s 693 mmHg 39%
    09:00 +6°C° 0 mm 0 m/s 693 mmHg 34%
    10:00 +7°C° 0 mm 0 m/s 693 mmHg 32%
    11:00 +8°C° 0 mm 0 m/s 692 mmHg 29%
    12:00 +10°C° 0 mm 1 m/s 692 mmHg 27%
    13:00 +10°C° 0 mm 1 m/s 692 mmHg 27%
    14:00 +11°C° 0 mm 1 m/s 691 mmHg 26%
    15:00 +11°C° 0 mm 1 m/s 691 mmHg 25%
    16:00 +10°C° 0 mm 1 m/s 691 mmHg 29%
    17:00 +9°C° 0 mm 1 m/s 691 mmHg 33%
    18:00 +7°C° 0 mm 2 m/s 691 mmHg 37%
    19:00 +6°C° 0 mm 2 m/s 692 mmHg 43%
    20:00 +6°C° 0 mm 2 m/s 692 mmHg 49%
    21:00 +6°C° 0 mm 1 m/s 692 mmHg 55%
    22:00 +6°C° 0 mm 1 m/s 692 mmHg 59%
    23:00 +5°C° 0 mm 1 m/s 692 mmHg 62%

    19 Noiembrie, Marţi

    Timp Temperatura Precipitaţii Vânt Presiune Umiditate
    00:00 +4°C° 0 mm 1 m/s 692 mmHg 66%
    01:00 +4°C° 0 mm 1 m/s 691 mmHg 67%
    02:00 +4°C° 0 mm 1 m/s 691 mmHg 69%
    03:00 +2°C° 0 mm 0 m/s 691 mmHg 70%
    04:00 +2°C° 0 mm 0 m/s 691 mmHg 71%
    05:00 +2°C° 0 mm 0 m/s 691 mmHg 71%
    06:00 +1°C° 0 mm 0 m/s 690 mmHg 72%
    07:00 +3°C° 0 mm 0 m/s 691 mmHg 64%
    08:00 +4°C° 0 mm 0 m/s 691 mmHg 56%
    09:00 +6°C° 0 mm 0 m/s 691 mmHg 49%
    10:00 +7°C° 0 mm 0 m/s 690 mmHg 44%
    11:00 +9°C° 0 mm 1 m/s 690 mmHg 40%
    12:00 +10°C° 0 mm 1 m/s 689 mmHg 36%
    13:00 +10°C° 0 mm 1 m/s 689 mmHg 34%
    14:00 +11°C° 0 mm 1 m/s 689 mmHg 33%
    15:00 +11°C° 0 mm 1 m/s 688 mmHg 31%
    16:00 +10°C° 0 mm 1 m/s 688 mmHg 35%
    17:00 +8°C° 0 mm 0 m/s 688 mmHg 38%
    18:00 +7°C° 0 mm 0 m/s 688 mmHg 42%
    19:00 +6°C° 0 mm 0 m/s 688 mmHg 43%
    20:00 +6°C° 0 mm 0 m/s 689 mmHg 44%
    21:00 +5°C° 0 mm 0 m/s 689 mmHg 45%
    22:00 +5°C° 0 mm 0 m/s 688 mmHg 46%
    23:00 +4°C° 0 mm 0 m/s 688 mmHg 47%

    20 Noiembrie, Miercuri

    Timp Temperatura Precipitaţii Vânt Presiune Umiditate
    00:00 +4°C° 0 mm 0 m/s 688 mmHg 48%
    01:00 +4°C° 0 mm 0 m/s 688 mmHg 48%
    02:00 +3°C° 0 mm 0 m/s 688 mmHg 49%
    03:00 +3°C° 0 mm 0 m/s 687 mmHg 50%
    04:00 +3°C° 0 mm 0 m/s 687 mmHg 51%
    05:00 +2°C° 0 mm 0 m/s 687 mmHg 52%
    06:00 +2°C° 0 mm 0 m/s 687 mmHg 53%
    07:00 +4°C° 0 mm 0 m/s 687 mmHg 47%
    08:00 +6°C° 0 mm 0 m/s 688 mmHg 40%
    09:00 +8°C° 0 mm 0 m/s 688 mmHg 33%
    10:00 +9°C° 0 mm 0 m/s 688 mmHg 31%
    11:00 +10°C° 0 mm 0 m/s 688 mmHg 29%
    12:00 +11°C° 0 mm 0 m/s 687 mmHg 26%
    13:00 +11°C° 0 mm 0 m/s 687 mmHg 25%
    14:00 +12°C° 0 mm 0 m/s 686 mmHg 24%
    15:00 +12°C° 0 mm 0 m/s 686 mmHg 23%
    16:00 +11°C° 0 mm 0 m/s 686 mmHg 27%
    17:00 +9°C° 0 mm 0 m/s 686 mmHg 31%
    18:00 +7°C° 0 mm 0 m/s 686 mmHg 35%
    19:00 +7°C° 0 mm 0 m/s 686 mmHg 36%
    20:00 +6°C° 0 mm 0 m/s 686 mmHg 37%
    21:00 +6°C° 0 mm 0 m/s 686 mmHg 38%
    22:00 +5°C° 0 mm 0 m/s 686 mmHg 39%
    23:00 +5°C° 0 mm 0 m/s 686 mmHg 39%
    Arată mai mult